This is the latest recevied weather packets stored in our database for station/object KC3AWA. If no packets are shown the sender has not sent any weather packets the latest 10 day(s).
| Time | Temp. | Humidity | Pressure | Rain* | Wind** | Luminosity | Snow |
|---|---|---|---|---|---|---|---|
| 1778062111 | 8.33° C | 98% | 1007.4 hPa | 1.27 mm | - | 0 W/m² | - |
| 1778061810 | 8.33° C | 98% | 1007.3 hPa | 1.78 mm | - | 0 W/m² | - |
| 1778061508 | 8.33° C | 98% | 1007.2 hPa | 1.78 mm | - | 0 W/m² | - |
| 1778061204 | 8.33° C | 98% | 1007 hPa | 1.78 mm | - | 0 W/m² | - |
| 1778060901 | 8.33° C | 98% | 1007.2 hPa | 3.05 mm | - | 0 W/m² | - |
| 1778060600 | 8.33° C | 98% | 1007 hPa | 1.27 mm | - | 0 W/m² | - |
| 1778060298 | 8.89° C | 98% | 1007.4 hPa | 0 mm | - | 0 W/m² | - |
| 1778059994 | 8.89° C | 98% | 1007.6 hPa | 3.05 mm | - | 0 W/m² | - |
| 1778059692 | 8.89° C | 98% | 1007.2 hPa | 4.83 mm | - | 0 W/m² | - |
| 1778059390 | 8.89° C | 98% | 1007.1 hPa | 4.83 mm | - | 0 W/m² | - |
| 1778059087 | 9.44° C | 98% | 1007.2 hPa | 6.1 mm | - | 0 W/m² | - |
| 1778058784 | 9.44° C | 98% | 1007.3 hPa | 6.1 mm | - | 0 W/m² | - |
| 1778058482 | 9.44° C | 98% | 1007.1 hPa | 6.1 mm | - | 0 W/m² | - |
| 1778058179 | 9.44° C | 98% | 1007.3 hPa | 4.83 mm | - | 0 W/m² | - |
| 1778057875 | 9.44° C | 98% | 1007.1 hPa | 4.83 mm | - | 0 W/m² | - |
| 1778057572 | 9.44° C | 98% | 1007.3 hPa | 4.83 mm | - | 0 W/m² | - |
| 1778057269 | 9.44° C | 98% | 1007.4 hPa | 3.05 mm | - | 0 W/m² | - |
| 1778056965 | 9.44° C | 98% | 1007.4 hPa | 3.05 mm | - | 0 W/m² | - |
| 1778056662 | 10° C | 98% | 1007.3 hPa | 3.05 mm | - | 0 W/m² | - |
| 1778056360 | 10° C | 98% | 1007.2 hPa | 1.27 mm | - | 0 W/m² | - |
| 1778056057 | 10° C | 98% | 1007.3 hPa | 1.78 mm | - | 0 W/m² | - |
| 1778055752 | 10° C | 98% | 1007.2 hPa | 3.05 mm | - | 0 W/m² | - |
| 1778055450 | 10° C | 98% | 1007.2 hPa | 1.27 mm | - | 0 W/m² | - |
| 1778055147 | 10° C | 98% | 1006.9 hPa | 1.78 mm | - | 0 W/m² | - |
| 1778054846 | 10° C | 98% | 1007 hPa | 1.27 mm | - | 0 W/m² | - |
* Rain latest hour (hover to see other rain measurements)
** Current wind speed in m/s (hover to see current wind gust speed)